"Pseudo-MPEC" for A115W6G

Created 2024 Apr 20 21:22:05 UT using Find_Orb

Click here for an explanation of pseudo-MPECs

 
 Astrometry: 
     A115W6G* C2024 04 19b:xy'0!Z=X/`gPde/ho,rm'u]BEy^9w]@avuqT*WAstrometryv+M22
     A115W6G  C2024 04 19-:J(redacted;sI@g[$#a#aTyu;yKkJYu'UZho^click*wW-QxN3M22
     A115W6G  C2024 04 19nRj//,cc+^Y^cJ.Cy5xZ#hereHrayPIQ(wv*._mnHWy-j]JnEmm4M22
     A115W6G  C2024 04 19F'knSm*Vxf-pb7Y!_MI'0`[.dN!xt]jB7wjuSBa`9#RL$7yM-8GEM22
     A115W6G KC2024 04 20.05106213 18 50.22 -20 33 57.2    ~4K1b 16.8 GXNEOCPI93
     A115W6G KC2024 04 20.05294213 18 48.67 -20 34 20.1    ~4K1b 16.4 GXNEOCPI93
     A115W6G KC2024 04 20.05481413 18 47.14 -20 34 43.3    ~4K1b 16.4 GXNEOCPI93
     A115W6G KC2024 04 20.05657013 18 45.69 -20 35 04.5    ~4K1b 15.9 GXNEOCPI93
     A115W6G KB2024 04 20sUc!0aPG+r8\3i_N*RQ\$/M#74^Ofor5)jl#-Sm:OB(?'VIY._]qW42
     A115W6G KB2024 04 20f;.Ty]explanationi\_Y(=3ipi\P*2s2+TB.h*m%3@0gsHVUai7W42
     A115W6G KB2024 04 20$V'OFc%POR4-^BOCiTEuUin#E$?h;CEBrk`Rui*k$kOF@L6uqlJ'W42
     A115W6G mC2024 04 20.28073913 15 45.666-21 20 35.20   ~4K77 16.47GVNEOCPI52
     A115W6G mC2024 04 20.28090913 15 45.526-21 20 37.39   ~4K77 16.45GVNEOCPI52
     A115W6G mC2024 04 20.28107913 15 45.385-21 20 39.30   ~4K77 16.50GVNEOCPI52
     A115W6G mC2024 04 20.28124913 15 45.248-21 20 41.35   ~4K77 16.49GVNEOCPI52
     A115W6G KC2024 04 20.85034913 08 08.04 -23 13 02.7    ~4KLM 16.6 GXNEOCP595
     A115W6G KC2024 04 20.85532013 08 03.97 -23 14 00.1    ~4KLM 16.9 GXNEOCP595
     A115W6G KC2024 04 20.86029413 07 59.84 -23 14 57.6    ~4KLM 16.7 GXNEOCP595

Station data:
(595) Farra d'Isonzo  (N45.915731 E13.525780)  Italy.  Observers S. Aschi, E.
   Pettarin, G. Panterotto. Measurers S. Aschi, E. Pettarin. 0.40-m f/5.15
   reflector + CCD.
(I52) Steward Observatory, Mt. Lemmon Station  (N32.442544 W110.788920)
   US/Arizona.  Observers T. A. Pruyne, B. M. Africano, E. J. Christensen, G.
   A. Farneth, D. C. Fuls, A. R. Gibbs, A. D. Grauer, H. Gröller, J. A.
   Johnson, R. A. Kowalski, S. M. Larson, G. J. Leonard, D. Rankin, R. L.
   Seaman, F. C. Shelly, K. W. Wierzchoś. 1.0-m prime focus + CCD.
(I93) St Pardon de Conques  (N44.558670 W0.202960)  France.  Observers F.
   Losse, W. D'Anna. Measurer F. Losse. 0.40-m f/3.7 reflector + CCD.
(M22) ATLAS South Africa, Sutherland  (S32.380156 E20.810590)  South Africa.
   Observers L. Denneau, R. Siverd, J. Tonry, H. Weiland. Measurers L.
   Denneau, N. Erasmus, A. Fitzsimmons, A. Lawrence, J. Robinson, R. Siverd,
   J. Tonry, H. Weiland. 0.5-m reflector + CCD.
(W42) Mind's Eye Observatory, Vero Beach  (N27.764537 W80.534310)  US/Florida.

Orbital elements:  A115W6G
   Perihelion 2024 Apr 3.31717 +/- 0.169 TT =  7:36:43 (JD 2460403.81717)
Epoch 2024 Apr 20.0 TT = JDT 2460420.5   Earth MOID: 0.1932   Ju: 0.5677
M   3.43219497 +/- 0.17             (J2000 ecliptic)             AutoNEOCP
n   0.20573219 +/- 0.00883          Peri.  166.40299 +/- 0.14
a   2.84185033 +/- 0.0813           Node    28.10020 +/- 0.0022
e   0.5826942 +/- 0.0115            Incl.   54.64129 +/- 0.25
P   4.79                   H 19.12  G  0.15   U  9.6
q 1.18592038 +/- 0.00119    Q 4.49778029 +/- 0.161
From 18 observations 2024 Apr. 19-20 (22.5 hr); mean residual 0".19
Residuals in arcseconds: 
240419 M22  .03+  .05+    240420 I93  .07+  .13-    240420 I52  .03-  .20-    
240419 M22  .08-  .08-    240420 I93  .05-  .19+    240420 I52  .05-  .05-    
240419 M22  .05-  .00     240420 W42  .02+  .14+    240420 I52  .00   .05-    
240419 M22  .10-  .15-    240420 W42  .12+  .04+    240420 595  .52+  .25-    
240420 I93  .07+  .04-    240420 W42  .08+  .11+    240420 595  .26+  .05+    
240420 I93  .02-  .12+    240420 I52  .03-  .07-    240420 595  .78-  .25+    

Ephemerides (geocentric):
Date (UTC) HH   RA             Dec           delta  r     elong  mag " sig PA
---- --------  ------------   ------------  ------ ------ -----  --- --------
2024 04 20 21  13 07 47.194   -23 17 09.16  .20647 1.2046 163.9 16.9 .282 155
2024 04 20 22  13 07 13.760   -23 25 09.68  .20673 1.2047 163.7 16.9 .283 151
2024 04 20 23  13 06 40.343   -23 33 08.53  .20698 1.2048 163.5 16.9 .286 146
2024 04 21 00  13 06 06.944   -23 41 05.73  .20724 1.2048 163.3 16.9 .290 141
2024 04 21 01  13 05 33.564   -23 49 01.25  .20749 1.2049 163.1 16.9 .297 135
2024 04 21 02  13 05 00.202   -23 56 55.10  .20775 1.2050 162.9 16.9 .306 130
2024 04 21 03  13 04 26.860   -24 04 47.27  .20802 1.2051 162.7 16.9 .318 124
2024 04 21 04  13 03 53.538   -24 12 37.74  .20828 1.2052 162.5 16.9 .334 119
2024 04 21 05  13 03 20.236   -24 20 26.53  .20855 1.2053 162.3 16.9 .353 114
2024 04 21 06  13 02 46.955   -24 28 13.61  .20882 1.2054 162.1 17.0 .375 109
2024 04 21 07  13 02 13.695   -24 35 58.99  .20909 1.2055 161.9 17.0 .400 105
2024 04 21 08  13 01 40.457   -24 43 42.65  .20936 1.2056 161.7 17.0 .428 101
2024 04 21 09  13 01 07.241   -24 51 24.60  .20964 1.2056 161.5 17.0 .459  97
2024 04 21 10  13 00 34.048   -24 59 04.83  .20992 1.2057 161.3 17.0 .493  93
2024 04 21 11  13 00 00.878   -25 06 43.33  .21020 1.2058 161.1 17.0 .530  90
2024 04 21 12  12 59 27.732   -25 14 20.11  .21048 1.2059 160.9 17.0 .570  88
2024 04 21 13  12 58 54.610   -25 21 55.14  .21076 1.2060 160.8 17.0 .612  85
2024 04 21 14  12 58 21.512   -25 29 28.44  .21105 1.2061 160.6 17.0 .656  83
2024 04 21 15  12 57 48.440   -25 37 00.00  .21134 1.2062 160.4 17.0 .703  81
2024 04 21 16  12 57 15.392   -25 44 29.80  .21163 1.2063 160.2 17.0 .752  79
2024 04 21 17  12 56 42.371   -25 51 57.86  .21192 1.2064 160.0 17.0 .802  77
2024 04 21 18  12 56 09.376   -25 59 24.16  .21222 1.2065 159.8 17.1 .855  76
2024 04 21 19  12 55 36.408   -26 06 48.71  .21252 1.2066 159.6 17.1 .910  74
2024 04 21 20  12 55 03.467   -26 14 11.49  .21282 1.2066 159.4 17.1 .967  73
2024 04 21 21  12 54 30.553   -26 21 32.51  .21312 1.2067 159.2 17.1 1.03  72
2024 04 21 22  12 53 57.668   -26 28 51.76  .21342 1.2068 159.0 17.1 1.09  71
2024 04 21 23  12 53 24.811   -26 36 09.24  .21373 1.2069 158.8 17.1 1.15  70
2024 04 22 00  12 52 51.983   -26 43 24.95  .21404 1.2070 158.7 17.1 1.21  69
2024 04 22 01  12 52 19.185   -26 50 38.89  .21435 1.2071 158.5 17.1 1.28  68
2024 04 22 02  12 51 46.417   -26 57 51.05  .21466 1.2072 158.3 17.1 1.34  67
2024 04 22 03  12 51 13.679   -27 05 01.43  .21497 1.2073 158.1 17.1 1.41  67
2024 04 22 04  12 50 40.971   -27 12 10.03  .21529 1.2074 157.9 17.1 1.48  66
2024 04 22 05  12 50 08.295   -27 19 16.85  .21561 1.2075 157.7 17.1 1.55  65
2024 04 22 06  12 49 35.650   -27 26 21.88  .21593 1.2076 157.5 17.2 1.63  65
2024 04 22 07  12 49 03.037   -27 33 25.13  .21625 1.2077 157.4 17.2 1.70  64
2024 04 22 08  12 48 30.457   -27 40 26.59  .21657 1.2078 157.2 17.2 1.78  64
2024 04 22 09  12 47 57.909   -27 47 26.26  .21690 1.2079 157.0 17.2 1.85  63
2024 04 22 10  12 47 25.394   -27 54 24.15  .21723 1.2080 156.8 17.2 1.93  63
2024 04 22 11  12 46 52.914   -28 01 20.24  .21756 1.2081 156.6 17.2 2.01  62
2024 04 22 12  12 46 20.467   -28 08 14.55  .21789 1.2081 156.4 17.2 2.09  62
2024 04 22 13  12 45 48.054   -28 15 07.06  .21822 1.2082 156.3 17.2 2.18  62
2024 04 22 14  12 45 15.677   -28 21 57.79  .21856 1.2083 156.1 17.2 2.26  61
2024 04 22 15  12 44 43.335   -28 28 46.72  .21890 1.2084 155.9 17.2 2.34  61
2024 04 22 16  12 44 11.028   -28 35 33.86  .21924 1.2085 155.7 17.2 2.43  61
2024 04 22 17  12 43 38.757   -28 42 19.21  .21958 1.2086 155.5 17.2 2.52  60
2024 04 22 18  12 43 06.523   -28 49 02.77  .21992 1.2087 155.4 17.3 2.61  60
2024 04 22 19  12 42 34.326   -28 55 44.54  .22027 1.2088 155.2 17.3 2.70  60
2024 04 22 20  12 42 02.165   -29 02 24.52  .22062 1.2089 155.0 17.3 2.79  60